CAPE
3180 3006 2751 2358 2177 2061 2143 2146 1970 1659 1328 1086 942 887 971 912 892 988 813 865 850 706 882 795 676 744 695 909 1059 942 781 662 638 558 673 701 642 592 501 564 734 546
2981 2773 2554 2326 2090 2116 2218 2269 2204 1882 1365 1255 1075 1186 1155 1221 1046 853 861 758 779 683 720 600 719 647 667 697 999 911 830 680 575 568 606 685 594 582 514 444 391 476
2740 2537 2445 2224 2075 2178 2279 2373 2306 1934 1181 1053 1106 1176 1088 1138 1140 1114 942 707 690 575 776 697 690 696 674 680 938 915 765 694 607 486 622 519 456 554 530 351 364 426
2506 2368 2246 2117 2130 2238 2361 2460 2288 1415 1068 1108 977 911 946 959 1040 1082 1095 962 884 832 682 593 527 487 679 721 921 778 760 809 611 584 640 678 649 509 393 495 507 470
2278 2047 2028 2102 2205 2331 2502 2529 2023 998 841 925 920 1052 1042 1052 1006 904 929 1030 1015 822 819 730 741 598 833 696 894 698 666 652 724 986 842 628 722 708 524 534 569 514
2045 2040 2112 2192 2289 2445 2594 2462 1373 895 892 928 992 872 813 1020 917 719 648 564 519 522 494 481 656 578 631 723 934 708 576 474 542 947 870 654 505 624 636 677 646 568
2042 2084 2156 2227 2386 2589 2608 2201 1048 967 910 841 1103 1012 968 911 963 810 704 596 467 596 590 648 901 706 862 894 886 866 962 779 729 1044 971 766 832 815 898 971 844 742
2067 2130 2253 2301 2501 2631 2479 1740 939 1038 1096 1106 1008 1183 1151 895 940 811 827 885 586 961 1122 1045 1144 1197 924 948 898 868 730 822 808 1025 1091 915 1077 1008 845 986 956 882
2052 2186 2287 2479 2624 2626 2330 1262 770 1008 1001 998 912 844 981 930 905 778 1029 1077 945 1024 1224 1229 1377 1299 1188 1141 1008 956 850 666 698 816 836 694 689 800 849 906 913 858
2049 2139 2438 2568 2617 2420 1746 829 330 685 753 847 836 702 734 775 799 852 938 1012 888 934 1062 1116 1207 1188 1120 1129 1099 998 928 915 972 1104 1056 962 833 727 542 744 732 719
2246 2420 2356 2483 2453 2237 1318 440 164 210 342 440 568 487 511 525 522 612 754 804 680 796 978 1084 1038 1098 1142 987 951 880 884 840 879 990 1081 1092 1072 981 910 749 727 686
2049 2284 2342 2402 2504 2282 1245 369 152 284 188 209 301 281 287 221 498 468 442 624 682 779 960 1067 1052 1106 1113 1006 848 924 910 835 801 921 918 999 1034 1024 909 936 832 787
1741 2048 2250 2180 2032 2111 1380 156 46 44 50 48 89 93 112 116 192 414 538 560 663 650 736 889 982 930 1017 1032 1017 1003 998 988 917 990 1096 1152 1136 1006 938 894 920 979
1723 1764 2007 2242 2136 1394 494 90 35 49 58 79 166 88 36 102 198 314 346 403 536 580 719 816 962 1014 1067 1109 1094 1095 1094 1124 1173 1290 1258 1248 1224 1169 1021 878 872 844
1670 1523 1734 2300 1884 1012 397 216 70 58 142 147 172 147 124 142 225 237 369 378 436 599 724 817 930 1050 1108 1124 1160 1242 1304 1293 1416 1355 1150 1100 1092 912 880 1053 882 859
1641 1546 1376 1977 1756 700 374 123 79 90 176 200 215 194 304 318 289 338 298 370 516 639 769 950 948 1002 725 142 369 1140 1452 1308 1174 1111 1057 902 948 818 672 860 979 946
1630 1476 1322 1501 1378 576 246 243 254 294 349 369 362 458 464 382 373 323 255 332 419 539 705 744 793 836 132 0 0 6 757 1042 1076 1127 1096 1104 931 889 736 566 764 1227
1706 1546 1456 1390 1228 791 415 346 362 424 426 516 510 486 546 495 323 316 317 274 280 344 448 613 739 286 0 0 0 0 57 635 798 766 802 850 808 786 892 883 890 1057
1761 1739 1720 1704 1435 1145 754 481 453 472 614 604 606 682 585 609 490 320 249 244 271 367 395 492 615 206 0 0 0 0 0 86 564 804 723 752 844 1004 960 1150 1245 1311
1782 1777 1793 1790 1718 1471 1057 804 655 487 494 670 753 908 671 578 556 437 338 376 365 437 577 674 785 370 0 0 0 0 0 4 257 731 885 882 980 1083 1146 1197 1300 1332
1720 1742 1794 1735 1654 1624 1266 1079 908 638 657 846 897 943 800 702 588 541 570 541 498 543 688 848 969 289 0 0 0 0 0 0 124 549 734 1022 1170 1226 1322 1350 1369 1420
1698 1684 1697 1520 1516 1512 1469 1127 1058 806 825 1030 1032 986 882 722 658 648 619 557 666 744 701 827 936 360 0 0 0 0 0 0 205 519 740 927 1122 1216 1281 1463 1440 1393
1677 1654 1494 1510 1513 1328 1284 1215 1091 824 964 1048 935 958 886 764 715 722 684 702 712 855 877 915 1054 665 0 0 0 0 0 128 384 637 848 978 1142 1204 1094 1260 1139 1002
1723 1732 1730 1642 1516 1346 1224 1141 937 964 992 1047 988 1038 961 921 876 857 886 869 789 866 862 1028 1135 928 514 562 636 672 579 355 648 925 1017 1051 545 328 312 306 317 135
1777 1799 1800 1731 1571 1348 1111 1126 798 899 1020 940 915 1004 1039 1083 912 954 992 1053 1031 1012 800 675 868 766 707 713 787 754 690 290 364 630 676 718 500 393 359 547 533 367
1818 1783 1854 1716 1454 1330 1178 1094 1032 1053 930 874 876 916 955 1056 1134 1081 1118 1147 1157 1012 818 688 668 885 1007 1003 878 840 751 624 476 415 497 572 500 473 666 471 379 292
Wind_Speed
22 23 23 23 23 23 24 23 22 22 23 25 28 29 30 29 29 29 27 27 26 24 23 22 21 22 21 21 21 21 21 20 21 22 22 23 23 24 26 29 30 29
24 24 24 24 24 24 24 25 25 24 25 27 28 30 30 29 30 29 28 27 26 24 23 22 22 22 21 21 22 22 22 22 21 23 23 23 23 25 27 29 30 31
26 26 26 27 26 27 26 26 26 26 26 28 29 29 30 29 29 29 29 27 26 25 24 23 22 22 21 21 22 22 22 22 21 23 23 23 24 25 26 28 30 31
27 27 28 28 28 29 28 27 27 27 28 29 29 29 29 29 29 30 30 29 27 25 24 23 22 22 22 21 22 22 22 22 22 23 23 23 23 25 26 27 28 27
28 28 28 29 30 30 29 29 30 30 30 30 31 30 29 30 30 31 31 30 28 26 25 24 23 23 23 22 23 23 23 23 23 23 23 22 23 25 26 28 28 27
28 29 30 31 32 32 31 31 31 32 32 32 31 31 29 30 30 31 32 32 29 27 25 23 23 24 23 23 23 23 24 23 23 24 22 21 22 25 28 28 28 26
28 28 29 29 32 33 32 32 32 32 32 32 32 31 29 29 30 30 32 32 30 27 25 23 23 24 24 24 24 24 24 24 23 24 22 21 23 25 28 27 25 24
28 27 28 29 31 30 29 31 32 32 33 32 32 32 30 29 29 30 31 33 30 28 26 24 24 25 24 25 25 25 24 25 24 24 22 21 23 25 26 26 25 24
30 28 30 32 32 30 30 30 31 32 34 33 31 33 32 29 29 29 32 33 31 28 27 26 26 25 25 25 26 26 25 24 24 23 22 21 22 25 26 26 26 26
39 39 35 32 33 31 31 32 34 33 33 33 33 33 33 31 29 29 32 33 30 28 28 28 28 26 26 26 27 27 26 25 25 25 24 24 24 25 26 29 29 29
50 43 38 35 35 33 33 35 36 35 34 33 33 32 34 34 32 31 31 31 29 28 30 30 27 26 26 27 28 29 28 27 26 26 27 27 27 28 29 31 32 33
47 45 43 40 39 40 41 39 38 39 40 38 34 32 34 34 35 34 32 30 29 29 30 29 26 26 27 27 27 29 30 29 28 28 28 28 29 30 30 32 34 35
48 46 44 42 41 43 40 40 nan nan nan nan nan nan 37 36 34 33 32 30 29 29 28 27 27 27 28 28 28 30 31 30 30 30 30 30 30 31 31 32 35 37
45 47 47 44 41 42 41 nan nan nan nan nan 40 nan nan 37 35 34 32 30 30 29 28 28 28 28 29 29 29 30 31 32 32 32 32 32 31 30 30 32 35 37
45 47 50 49 46 42 41 43 nan nan 40 40 41 42 40 38 38 37 35 31 30 28 28 29 29 30 31 31 30 30 32 32 33 34 32 31 29 28 31 35 37 38
45 45 49 50 45 43 44 45 nan nan 41 40 41 41 40 41 41 39 33 30 28 27 29 31 32 33 33 33 31 31 33 34 34 34 33 30 28 29 32 36 38 40
46 49 53 49 44 43 41 39 39 38 40 40 40 38 38 41 41 37 32 30 27 28 31 32 32 34 36 nan nan nan 31 33 34 35 33 30 29 32 34 36 39 43
50 54 56 54 49 46 39 35 36 37 40 40 39 38 37 39 38 34 33 32 32 32 31 30 31 35 nan nan nan nan nan 33 34 34 32 31 32 34 36 38 41 42
53 55 55 54 51 44 35 34 36 38 40 41 39 38 37 37 36 36 34 34 33 32 31 30 32 39 nan nan nan nan nan nan 32 32 31 30 33 36 38 41 43 44
54 55 55 54 51 45 39 39 41 41 40 39 38 37 36 34 34 31 29 28 27 27 29 31 33 38 nan nan nan nan nan nan 32 31 31 31 34 36 40 43 45 46
55 55 56 54 50 45 43 42 42 40 37 35 36 36 35 33 28 23 22 23 23 25 28 30 33 37 nan nan nan nan nan nan 33 33 31 32 35 37 41 44 46 44
57 57 56 53 50 47 44 41 38 36 34 34 34 34 33 29 24 20 20 21 21 23 25 28 30 37 nan nan nan nan nan nan 34 34 33 34 37 40 43 46 45 43
59 59 57 53 49 47 44 39 36 37 36 35 34 33 31 27 23 22 22 20 20 21 23 24 26 34 nan nan nan nan nan 34 35 36 36 38 40 42 44 45 46 47
59 59 59 54 50 47 43 37 36 40 39 37 36 34 29 24 25 24 22 20 19 20 22 24 27 32 40 40 38 35 36 34 35 36 37 40 45 47 50 49 47 53
59 59 57 55 50 46 42 40 40 42 39 37 34 32 26 24 24 22 20 21 20 21 23 27 28 31 38 38 37 36 37 35 36 37 39 43 50 50 50 48 48 54
59 58 55 52 48 42 40 41 41 40 40 37 33 29 25 24 23 21 21 21 22 24 27 31 32 33 39 42 37 37 39 37 37 39 42 47 48 48 48 47 47 48
Wind_Direction
312 309 311 310 311 311 309 310 308 312 311 311 312 312 314 315 316 315 313 312 316 318 318 319 319 320 322 325 326 325 323 325 325 322 323 323 325 328 328 327 326 325
318 313 309 310 309 309 309 310 310 311 310 309 309 308 310 313 314 313 312 314 316 319 319 320 319 320 323 324 324 324 324 325 326 319 321 325 326 328 330 329 327 325
316 316 316 317 316 317 316 313 310 309 307 307 306 305 307 311 312 311 311 315 318 321 321 320 319 321 324 324 323 323 323 324 324 322 324 328 329 330 330 330 329 329
319 318 318 317 314 313 311 310 307 304 303 302 304 306 308 309 312 313 313 317 320 322 322 320 321 323 324 323 321 321 323 323 324 324 326 328 332 333 335 335 336 335
319 318 316 315 312 309 306 307 307 306 307 304 304 307 310 312 313 315 317 320 322 323 321 320 320 323 321 320 321 322 322 324 324 324 325 329 332 334 335 335 335 335
317 317 316 314 310 308 305 307 306 306 307 306 307 309 314 315 316 318 320 321 322 324 322 319 319 321 320 319 320 323 323 323 323 323 325 330 333 332 332 332 333 333
318 315 315 310 308 306 304 304 304 304 304 304 305 310 312 315 316 318 318 317 320 321 320 316 317 320 318 318 321 323 322 323 322 323 325 329 331 334 333 334 337 338
318 315 312 304 300 297 298 299 301 302 303 303 307 307 309 313 315 314 313 312 317 318 316 315 316 320 320 317 320 321 322 319 321 324 325 327 329 335 339 339 340 341
304 299 290 286 291 295 296 297 299 300 300 303 302 301 302 308 312 313 308 308 312 314 312 312 313 316 315 315 317 319 321 322 322 325 325 324 329 336 341 341 340 338
283 273 272 281 294 300 304 298 294 295 297 298 296 295 299 301 304 306 303 304 310 311 310 309 310 311 313 315 318 319 320 322 323 324 323 321 323 329 334 336 337 337
281 287 294 299 300 299 301 295 290 288 289 294 293 293 294 296 297 298 298 302 307 310 308 308 307 309 312 315 316 318 319 321 323 323 323 321 319 320 323 329 333 335
306 314 314 315 307 294 289 290 286 285 286 290 294 293 292 296 296 296 300 304 304 305 306 307 304 304 307 310 314 316 317 319 321 321 322 320 318 317 317 321 327 331
332 328 327 325 312 299 296 290 nan nan nan nan nan nan 292 297 298 299 299 299 298 300 304 305 301 300 302 306 311 315 316 319 320 320 319 316 316 316 314 318 325 327
329 331 326 319 309 310 310 nan nan nan nan nan 290 nan nan 296 297 299 298 296 296 299 301 301 299 297 301 306 310 315 317 318 318 317 316 315 314 312 314 319 324 327
331 327 315 306 305 307 309 315 nan nan 305 297 297 299 298 297 294 294 294 294 294 296 299 300 298 296 299 304 308 314 316 317 315 314 312 311 311 313 317 321 323 325
327 318 305 301 305 312 319 322 nan nan 317 313 310 308 304 299 296 292 293 295 295 297 299 296 294 294 301 312 312 309 313 311 310 310 309 309 311 315 320 322 324 326
318 314 317 324 330 329 326 323 324 322 319 319 315 311 306 303 301 299 298 295 294 298 302 295 292 295 306 nan nan nan 311 310 308 307 306 307 312 317 320 322 323 325
317 321 328 334 333 331 328 320 320 323 320 317 315 314 308 306 306 301 296 293 290 297 302 297 294 301 nan nan nan nan nan 307 306 305 304 306 312 317 318 320 323 325
320 325 326 326 327 329 322 314 320 325 324 319 321 320 311 309 305 299 299 298 294 295 300 298 297 303 nan nan nan nan nan nan 303 304 305 309 314 317 318 320 322 325
320 323 324 327 328 326 322 320 322 327 326 322 321 319 317 313 307 305 303 305 301 299 300 299 303 305 nan nan nan nan nan nan 303 302 304 310 315 317 317 321 324 325
322 322 322 328 324 317 314 314 316 320 323 321 320 320 318 314 307 299 300 305 307 305 303 304 305 311 nan nan nan nan nan nan 299 296 299 307 312 315 318 321 323 320
324 323 324 318 315 316 317 314 312 317 320 316 315 315 311 305 294 284 292 302 304 304 306 310 309 314 nan nan nan nan nan nan 296 295 299 306 309 312 315 318 318 314
322 322 318 316 318 319 320 319 317 319 318 312 312 312 310 303 290 282 284 291 298 306 314 316 315 315 nan nan nan nan nan 294 295 296 300 306 309 306 309 313 313 311
320 317 314 319 317 317 319 319 317 312 317 313 313 311 310 300 286 280 279 282 295 309 318 321 321 318 316 313 310 305 300 297 294 296 301 303 306 309 310 312 313 311
317 315 316 317 316 318 317 317 315 313 314 312 311 307 304 291 283 278 273 276 292 308 317 321 319 316 315 313 307 302 297 293 294 298 303 306 306 309 312 313 312 312
316 315 314 311 315 318 317 316 309 308 313 315 308 300 291 281 278 272 265 267 284 305 312 317 320 315 310 309 305 299 300 296 296 301 306 307 311 314 312 312 313 314